Regional Weather Roundup
Issued by NWS

Home | Current Version | Previous Version | Graphics & Text | Print | Product List | Glossary On
Versions: 1 2 3 4 5 6 7 8 9 10 11 12 13 14 15 16 17 18 19 20 21 22 23 24 25 26 27 28 29 30 31 32 33 34 35 36 37 38 39 40 41 42 43 44 45 46 47 48 49 50
020
ASUS43 KLOT 280404
RWRIL

ILLINOIS REGIONAL WEATHER ROUNDUP
NATIONAL WEATHER SERVICE CHICAGO/ROMEOVILLE IL
1100 PM CDT SAT AUG 27 2016

NOTE: "FAIR" INDICATES FEW OR NO CLOUDS BELOW 12,000 FEET WITH NO
SIGNIFICANT WEATHER AND/OR OBSTRUCTIONS TO VISIBILITY.

* THESE STATIONS ARE NOT UNDER NWS QUALITY CONTROL. THEY ALSO MAY NOT
  REPORT WEATHER SUCH AS PRECIPITATION OR FOG.

ILZ001-002-007-009-015-016-024-280500-
NORTHWEST ILLINOIS

CITY           SKY/WX    TMP DP  RH WIND       PRES   REMARKS
MOLINE         CLOUDY    76  72  87 NE6       30.07R
STERLING*      CLOUDY    74  72  93 CALM      30.09R
SAVANNA*       MOCLDY    70  69  97 CALM      30.08R
$$

ILZ003-004-008-010-011-017-018-280500-
NORTH CENTRAL ILLINOIS

CITY           SKY/WX    TMP DP  RH WIND       PRES   REMARKS
ROCKFORD       MOCLDY    73  69  87 CALM      30.11R
ROCHELLE*      CLOUDY    72  71  96 CALM      30.11R
$$

ILZ005-006-012>014-019>023-280500-
NORTHEAST ILLINOIS

CITY           SKY/WX    TMP DP  RH WIND       PRES   REMARKS
CHICAGO-OHARE  CLOUDY    76  70  82 W3        30.08S
CHICAGO-MIDWAY CLOUDY    78  71  79 CALM      30.08R HX  80
AURORA         CLOUDY    74  70  87 CALM      30.10R
LANSING*       CLOUDY    73  73 100 SW3       30.09S
JOLIET*        CLOUDY    74  74  98 CALM      30.09S
WAUKEGAN       CLOUDY    73  71  93 VRB3      30.08R
DUPAGE AIRPORT CLOUDY    73  69  87 W5        30.09S
KANKAKEE*      CLOUDY    76  74  93 CALM      30.09S
WHEELING       CLOUDY    74  70  87 S5        30.10R
MORRIS*        CLOUDY    74  73  93 CALM      30.08R
ROMEOVILLE*    MOCLDY    73  73 100 CALM      30.09S
NORTHERLY ISL    N/A     78  69  73 W1          N/A  HX  80
$$

LMZ740>746-280500-
SOUTHERN LAKE MICHIGAN

STATION/POSITION SKY/WX   TEMP    WIND        PRES    VSBY  WAVE
                          AIR SEA DIR/SP/G                  HT/PER
                          (F)     (DEG/KT/KT) (MB)    (MI)  (FT/S)
SOUTHERN BUOY              76 75  220/ 19/ 25 1017.1          1
WILMETTE HARBOR            72 70  230/  2/  2   N/A           1/ 3
HARRISON CRIB              81     220/  6/  7   N/A
BURNHAM HARBOR             77     240/  1/  7   N/A
CALUMET HARBOR             79     210/  2/  3 1018.1R
BURNS HARBOR               78     190/  8/  9 1019.0R
MICHIGAN CITY              78     160/ 11/ 13   N/A
MICHIGAN CITY 6N           77 76  170/  6/  6   N/A           1
ST. JOSEPH                 77 75  180/  8/ 10 1018.2R         1
$$

ILZ025>027-034>036-040-047-049-050-058-095>099-280500-
WEST-CENTRAL ILLINOIS

CITY           SKY/WX    TMP DP  RH WIND       PRES   REMARKS
QUINCY         CLOUDY    78  75  90 S6        30.08R HX  81
GALESBURG*     CLEAR     74  72  96 CALM      30.09R
MACOMB*        CLEAR     71  70  98 CALM      30.10R
JACKSONVILLE*  CLOUDY    75  72  89 CALM      30.09R
PITTSFIELD*    PTCLDY    75  71  85 S5        30.09S
$$

ILZ028>032-037-038-041>044-048-051>054-059>061-280500-
CENTRAL ILLINOIS

CITY           SKY/WX    TMP DP  RH WIND       PRES   REMARKS
PONTIAC        CLOUDY    75  73  92 CALM      30.10S
BLOOMINGTON    CLOUDY    72  69  90 CALM      30.10S
DECATUR        CLOUDY    76  68  76 CALM      30.09R
PEORIA         CLEAR     76  74  93 S5        30.08S
LACON*         PTCLDY    74  72  92 CALM      30.07R
LINCOLN*       CLOUDY    75  71  86 CALM      30.08R
SPRINGFIELD    CLOUDY    78  73  84 SE6       30.09R HX  81
TAYLORVILLE    MOCLDY    74  73  99 SE5       30.10R
$$

ILZ033-039-045-046-055>057-062-063-280500-
EAST-CENTRAL ILLINOIS

CITY           SKY/WX    TMP DP  RH WIND       PRES   REMARKS
CHAMPAIGN      PTCLDY    71  67  87 CALM      30.10S
RANTOUL*       PTCLDY    74  70  86 CALM      30.09F
MATTOON        CLEAR     73  71  93 SE5       30.10R
$$

ILZ079-100>102-280500-
SOUTHWEST ILLINOIS

CITY           SKY/WX    TMP DP  RH WIND       PRES   REMARKS
ALTON          PTCLDY    70  69  98 CALM      30.10R FOG
BELLEVILLE     CLEAR     76  75  96 SE5       30.08R
CAHOKIA*       PTCLDY    77  72  84 CALM      30.08R
SPARTA*        CLEAR     73  72  97 CALM      30.11R
$$

ILZ064>066-069>071-074>076-080>082-084>086-088>090-092>094-280500-
SOUTH-CENTRAL ILLINOIS

CITY           SKY/WX    TMP DP  RH WIND       PRES   REMARKS
CARBONDALE     CLEAR     72  71  97 SE3       30.09R FOG
EFFINGHAM*     CLEAR     73  73 100 CALM      30.11S
MARION         CLOUDY    75  73  94 CALM      30.10S
MT. VERNON     CLEAR     73  68  83 CALM      30.11R
CENTRALIA*     CLEAR     74  74  99 CALM      30.09S
SALEM*         CLEAR     78  73  85 E3        30.10S HX  81
METROPOLIS*    CLEAR     77  75  95 CALM      30.09S
$$

ILZ067-068-072-073-078-083-087-091-280500-
SOUTHEAST ILLINOIS

CITY           SKY/WX    TMP DP  RH WIND       PRES   REMARKS
LAWRENCEVILLE  PTCLDY    76  75  97 SE7       30.11R
FLORA*         PTCLDY    74  73  96 CALM      30.10S
FAIRFIELD*     PTCLDY    75  74  97 CALM      30.09S
HARRISBURG*    PTCLDY    75  75  98 CALM      30.10R
ROBINSON*      MOCLDY    71  71  99 CALM      30.11S FOG
CARMI*         CLOUDY    76  76 100 CALM      30.10R
$$

ABBREVIATIONS USED IN REMARKS
   TC - TEMPERATURE IN CELSIUS
  WCI - WIND CHILL INDEX
   HX - HEAT INDEX
  VSB - VISIBILITY
$$





USA.gov is the U.S. government's official web portal to all federal, state and local government web resources and services.